Waarnemingen

Advertentie
Mijn weer
Nancy/Essey, Frankrijk (7180): temperatuur & dauwpunt: 19.02.2018 20:00:00 - 25.02.2018 20:00:00 (CET)Nancy/Essey, Frankrijk (7180): temperatuur 5cm: 19.02.2018 20:00:00 - 25.02.2018 20:00:00 (CET)Nancy/Essey, Frankrijk (7180): temperatuur -20cm & temperatuur -100cm: 19.02.2018 20:00:00 - 25.02.2018 20:00:00 (CET)Nancy/Essey, Frankrijk (7180): windsnelheid & windstoten: 19.02.2018 20:00:00 - 25.02.2018 20:00:00 (CET)Nancy/Essey, Frankrijk (7180): windrichting: 19.02.2018 20:00:00 - 25.02.2018 20:00:00 (CET)Nancy/Essey, Frankrijk (7180): luchtdruk: 19.02.2018 20:00:00 - 25.02.2018 20:00:00 (CET)Nancy/Essey, Frankrijk (7180): zicht: 19.02.2018 20:00:00 - 25.02.2018 20:00:00 (CET)Nancy/Essey, Frankrijk (7180): Zonneschijnduur: 19.02.2018 20:00:00 - 25.02.2018 20:00:00 (CET)Nancy/Essey, Frankrijk (7180): neerslag: 19.02.2018 20:00:00 - 25.02.2018 20:00:00 (CET)
Datum & Tijd tt [°C] td [°C] tt 5cm [°C] tt -20cm [°C] tt -100cm [°C] ff [km/u] ff [kn] fx [km/u] fx [kn] dd ppp [hPa] vv [km] sd [min] rr [mm]
25.02.2018 20:00:00 -3,1 -15,8 -4,7 1,9 5,6 23 12 37 20 NO 1024,0 60 0 0,0
25.02.2018 19:00:00 -2,2 -15,6 -3,7 1,9 5,6 23 12 37 20 NO 1023,7 59 0 0,0
25.02.2018 18:00:00 -1,3 -16,3 -2,3 1,9 5,6 24 13 45 25 NO 1023,1 58 48 0,0
25.02.2018 17:00:00 0,0 -15,5 1,3 1,9 5,6 27 14 49 26 NO 1022,7 44 60 0,0
25.02.2018 16:00:00 0,6 -15,9 2,8 1,9 5,6 30 16 49 26 NO 1022,6 34 60 0,0
25.02.2018 15:00:00 0,4 -15,2 3,0 2,0 5,6 31 17 54 29 NO 1022,7 31 60 0,0
25.02.2018 14:00:00 0,2 -16,2 2,8 2,0 5,7 35 19 55 30 ONO 1023,2 31 60 0,0
25.02.2018 13:00:00 -0,3 -15,0 1,9 2,0 5,6 38 21 58 32 NO 1023,3 32 60 0,0
25.02.2018 12:00:00 -1,0 -13,6 0,9 2,0 5,6 36 19 60 33 NO 1023,6 20 60 0,0
25.02.2018 11:00:00 -2,5 -12,8 -1,0 2,0 5,7 34 18 53 28 ONO 1023,9 19 60 0,0
25.02.2018 10:00:00 -3,7 -11,9 -2,9 2,0 5,6 32 17 50 27 ONO 1024,0 19 60 0,0
25.02.2018 09:00:00 -5,0 -12,2 -5,1 2,1 5,7 38 20 54 29 ONO 1024,0 31 60 0,0
25.02.2018 08:00:00 -5,7 -12,0 -6,8 2,1 5,7 25 13 43 23 ONO 1023,7 36 11 0,0
25.02.2018 07:00:00 -5,6 -12,1 -6,6 2,1 5,7 25 13 50 27 ONO 1023,1 40 0 0,0
25.02.2018 06:00:00 -5,0 -12,0 -5,9 2,1 5,7 29 16 52 28 ONO 1022,4 42 0 0,0
25.02.2018 05:00:00 -4,4 -11,7 -5,2 2,2 5,7 31 17 55 30 ONO 1021,9 45 0 0,0
25.02.2018 04:00:00 -3,6 -10,9 -4,6 2,2 5,7 27 15 50 27 ONO 1021,4 47 0 0,0
25.02.2018 03:00:00 -2,9 -10,7 -4,0 2,3 5,7 25 14 55 30 ONO 1021,2 49 0 0,0
25.02.2018 02:00:00 -2,2 -10,7 -3,0 2,3 5,7 29 16 56 31 ONO 1021,0 51 0 0,0
25.02.2018 01:00:00 -1,8 -10,4 -2,8 2,2 5,7 32 18 56 31 ONO 1020,8 44 0 0,0
25.02.2018 00:00:00 -1,4 -10,0 -2,4 2,3 5,8 29 16 50 27 ONO 1020,6 42 0 0,0
24.02.2018 23:00:00 -1,0 -8,7 -2,2 2,3 5,7 26 14 47 25 ONO 1020,4 37 0 0,0
24.02.2018 22:00:00 -0,4 -8,1 -1,7 2,3 5,7 24 13 46 25 ONO 1019,9 37 0 0,0
24.02.2018 21:00:00 0,3 -7,7 -1,0 2,3 5,7 28 15 49 27 NO 1019,6 36 0 0,0
24.02.2018 20:00:00 1,2 -8,1 -0,5 2,3 5,7 31 17 45 24 ONO 1019,0 40 0 0,0
24.02.2018 19:00:00 2,1 -9,2 0,9 2,3 5,8 27 15 47 25 ONO 1018,6 32 0 0,0
24.02.2018 18:00:00 2,8 -10,1 1,8 2,2 5,7 29 16 56 30 ONO 1017,7 33 46 0,0
24.02.2018 17:00:00 4,1 -10,8 4,9 2,2 5,7 34 18 58 32 ONO 1017,1 32 60 0,0
24.02.2018 16:00:00 4,6 -10,3 6,1 2,2 5,8 30 16 56 30 ONO 1016,9 18 60 0,0
24.02.2018 15:00:00 4,2 -9,6 5,7 2,2 5,8 31 17 61 33 ONO 1016,8 12 60 0,0
24.02.2018 14:00:00 3,3 -9,0 5,2 2,2 5,8 38 20 54 29 ONO 1016,9 10 60 0,0
24.02.2018 13:00:00 2,8 -8,0 4,7 2,2 5,8 37 20 56 31 ONO 1016,7 9 60 0,0
24.02.2018 12:00:00 2,3 -5,8 3,9 2,2 5,8 30 16 53 29 ONO 1016,9 8 60 0,0
24.02.2018 11:00:00 0,8 -6,3 2,0 2,3 5,8 31 17 44 24 ONO 1016,8 8 60 0,0
24.02.2018 10:00:00 -0,8 -6,8 -0,8 2,3 5,8 25 14 48 26 NO 1017,1 11 60 0,0
24.02.2018 09:00:00 -2,7 -7,8 -3,6 2,3 5,8 25 14 43 23 NO 1017,2 11 60 0,0
24.02.2018 08:00:00 -3,7 -8,0 -5,0 2,3 5,8 21 12 29 16 NO 1017,1 11 10 0,0
24.02.2018 07:00:00 -3,7 -8,0 -4,8 2,3 5,8 21 11 33 18 NO 1016,9 11 0 0,0
24.02.2018 06:00:00 -3,5 -7,6 -5,1 2,4 5,8 14 8 22 12 NNO 1016,4 11 0 0,0
24.02.2018 05:00:00 -3,2 -7,4 -4,5 2,4 5,8 17 9 26 14 NO 1016,1 11 0 0,0
24.02.2018 04:00:00 -2,8 -7,3 -5,3 2,4 5,8 17 9 26 14 NO 1016,0 11 0 0,0
24.02.2018 03:00:00 -3,2 -7,4 -4,9 2,4 5,8 13 7 21 11 NO 1016,0 13 0 0,0
24.02.2018 02:00:00 -3,2 -7,4 -5,3 2,5 5,8 13 7 19 11 NO 1016,4 14 0 0,0
24.02.2018 01:00:00 -2,0 -7,7 -3,6 2,5 5,9 16 8 27 15 NO 1016,5 16 0 0,0
24.02.2018 00:00:00 -2,0 -7,7 -3,4 2,5 5,9 17 9 31 17 NO 1016,4 16 0 0,0
23.02.2018 23:00:00 -1,1 -7,5 -2,1 2,5 5,9 18 10 29 16 NO 1016,4 17 0 0,0
23.02.2018 22:00:00 -0,2 -7,3 -0,8 2,5 5,8 21 11 32 18 NO 1016,5 19 0 0,0
23.02.2018 21:00:00 0,4 -6,9 -0,1 2,5 5,8 21 11 29 16 NO 1016,3 18 0 0,0
23.02.2018 20:00:00 0,6 -6,1 -0,2 2,5 5,9 16 9 32 18 NO 1016,2 14 0 0,0
23.02.2018 19:00:00 0,5 -5,7 -0,5 2,4 5,9 16 9 29 16 ONO 1016,3 13 0 0,0
23.02.2018 18:00:00 0,6 -5,6 -0,1 2,4 5,9 18 10 39 21 O 1016,0 13 0 0,0
23.02.2018 17:00:00 1,0 -5,9 0,8 2,4 5,9 22 12 38 21 O 1015,8 14 16 0,0
23.02.2018 16:00:00 2,3 -5,8 2,9 2,4 5,9 24 13 47 26 O 1015,6 15 51 0,0
23.02.2018 15:00:00 2,0 -6,3 3,3 2,4 5,9 31 17 53 29 ONO 1015,7 13 54 0,0
23.02.2018 14:00:00 2,4 -6,2 3,3 2,4 5,9 32 18 50 27 NO 1015,9 18 56 0,0
23.02.2018 13:00:00 1,8 -6,1 2,4 2,4 5,9 32 17 52 28 ONO 1016,4 18 54 0,0
23.02.2018 12:00:00 0,3 -7,2 1,5 2,5 5,9 31 17 46 25 NO 1017,0 17 43 0,0
23.02.2018 11:00:00 -0,3 -7,6 1,3 2,5 5,9 32 18 50 27 NO 1017,1 18 60 0,0
23.02.2018 10:00:00 -1,2 -8,0 -0,4 2,5 5,9 32 17 49 26 NO 1017,2 20 60 0,0
23.02.2018 09:00:00 -2,2 -8,3 -3,1 2,5 5,9 31 17 47 26 NO 1016,9 19 60 0,0
23.02.2018 08:00:00 -3,2 -8,3 -4,6 2,6 5,9 22 12 37 20 NNO 1016,8 26 8 0,0
23.02.2018 07:00:00 -3,1 -8,4 -4,5 2,6 5,9 24 13 39 21 NO 1016,7 28 0 0,0
23.02.2018 06:00:00 -3,1 -8,4 -4,1 2,6 5,9 21 11 37 20 NO 1016,7 29 0 0,0
23.02.2018 05:00:00 -2,7 -8,2 -3,7 2,6 5,9 23 13 36 20 NO 1016,5 29 0 0,0
23.02.2018 04:00:00 -2,2 -8,1 -3,1 2,7 5,9 25 14 42 23 NO 1016,6 29 0 0,0
23.02.2018 03:00:00 -2,0 -8,1 -3,2 2,7 5,9 23 13 39 21 NO 1016,9 31 0 0,0
23.02.2018 02:00:00 -1,8 -8,1 -2,9 2,7 5,9 24 13 44 24 NO 1017,1 32 0 0,0
23.02.2018 01:00:00 -0,9 -7,9 -1,7 2,7 5,9 27 15 51 28 NO 1017,2 33 0 0,0
23.02.2018 00:00:00 -0,2 -7,7 -0,8 2,7 5,9 29 16 49 27 NO 1017,4 37 0 0,0
22.02.2018 23:00:00 0,0 -7,3 -1,4 2,8 5,9 31 17 50 27 NO 1017,3 40 0 0,0
22.02.2018 22:00:00 -0,2 -6,6 -1,3 2,8 5,9 19 10 28 15 NNO 1017,4 38 0 0,0
22.02.2018 21:00:00 0,4 -6,5 -0,7 2,8 6,0 19 10 29 16 NNO 1017,5 39 0 0,0
22.02.2018 20:00:00 0,6 -6,7 -0,4 2,7 6,0 23 12 37 20 NNO 1017,6 38 0 0,0
22.02.2018 19:00:00 0,8 -6,8 -0,2 2,7 6,0 24 13 42 23 NO 1017,2 36 0 0,0
22.02.2018 18:00:00 1,8 -7,5 1,0 2,7 5,9 27 15 48 26 NO 1016,8 55 9 0,0
22.02.2018 17:00:00 2,7 -8,1 2,6 2,7 6,0 27 15 52 28 NO 1016,4 56 9 0,0
22.02.2018 16:00:00 3,4 -8,3 4,0 2,7 6,0 36 19 55 30 NO 1016,4 60 50 0,0
22.02.2018 15:00:00 3,9 -8,2 4,9 2,7 6,0 34 18 57 31 NO 1016,3 38 60 0,0
22.02.2018 14:00:00 3,8 -7,4 3,8 2,7 6,0 34 19 59 32 NO 1016,6 42 40 0,0
22.02.2018 13:00:00 3,1 -7,4 4,8 2,7 6,0 35 19 54 29 ONO 1017,1 23 60 0,0
22.02.2018 12:00:00 1,9 -6,2 3,7 2,8 6,0 30 16 49 26 ONO 1017,9 20 60 0,0
22.02.2018 11:00:00 0,5 -5,9 1,5 2,8 6,0 29 16 54 29 NO 1018,3 17 58 0,0
22.02.2018 10:00:00 -0,6 -5,8 0,2 2,9 6,0 26 14 46 25 NO 1018,6 13 60 0,0
22.02.2018 09:00:00 -1,7 -5,9 -3,1 2,9 6,0 24 13 39 21 NO 1018,6 13 60 0,0
22.02.2018 08:00:00 -2,9 -6,5 -4,2 3,0 6,0 16 9 29 15 NNO 1018,6 10 6 0,0
22.02.2018 07:00:00 -2,8 -6,3 -4,1 3,0 6,0 17 9 34 18 NNO 1018,6 8 0 0,0
22.02.2018 06:00:00 -2,7 -6,2 -4,2 3,0 6,0 16 9 26 14 NNO 1018,7 7 0 0,0
22.02.2018 05:00:00 -2,6 -6,2 -3,9 3,1 6,0 14 7 27 15 NNO 1018,8 7 0 0,0
22.02.2018 04:00:00 -2,2 -6,0 -3,6 3,1 6,0 16 9 25 14 NNO 1018,9 7 0 0,0
22.02.2018 03:00:00 -1,9 -5,7 -3,3 3,1 6,0 18 10 29 16 NNO 1019,4 7 0 0,0
22.02.2018 02:00:00 -1,7 -5,6 -3,3 3,2 6,0 18 10 29 16 NO 1019,5 8 0 0,0
22.02.2018 01:00:00 -1,0 -5,2 -3,1 3,3 6,0 16 9 25 14 NNO 1019,9 10 0 0,0
22.02.2018 00:00:00 -1,0 -5,4 -5,1 3,3 6,0 11 6 18 10 NNO 1020,2 12 0 0,0
21.02.2018 23:00:00 -1,5 -5,5 -5,3 3,3 6,0 8 4 15 8 NNO 1020,4 12 0 0,0
21.02.2018 22:00:00 -1,0 -5,4 -4,6 3,3 6,0 8 5 16 9 NO 1020,5 12 0 0,0
21.02.2018 21:00:00 -0,1 -6,1 -3,9 3,3 6,0 3 1 16 9 NNO 1020,4 15 0 0,0
21.02.2018 20:00:00 0,1 -5,9 -3,6 3,3 6,0 14 7 21 12 NO 1020,4 18 0 0,0
21.02.2018 19:00:00 1,0 -6,1 -1,8 3,3 6,1 14 7 26 14 NO 1020,1 19 0 0,0
21.02.2018 18:00:00 2,5 -5,9 0,2 3,2 6,0 18 10 32 17 NO 1019,4 20 41 0,0
21.02.2018 17:00:00 4,8 -5,6 5,5 3,1 6,0 22 12 35 19 ONO 1019,2 19 60 0,0
21.02.2018 16:00:00 5,3 -4,0 7,0 3,1 6,0 23 13 36 19 NO 1019,2 14 60 0,0
21.02.2018 15:00:00 5,4 -2,9 7,0 3,1 6,0 26 14 43 23 NO 1019,5 10 60 0,0
21.02.2018 14:00:00 4,8 -2,1 7,1 3,0 6,0 23 12 38 21 NO 1020,1 9 60 0,0
21.02.2018 13:00:00 3,6 -2,6 5,9 3,1 6,0 24 13 49 26 NNO 1021,0 8 60 0,0
21.02.2018 12:00:00 2,6 -2,9 5,1 3,1 6,0 24 13 37 20 NO 1021,5 7 60 0,0
21.02.2018 11:00:00 1,8 -2,7 2,5 3,1 6,0 22 12 39 21 NO 1022,1 6 58 0,0
21.02.2018 10:00:00 0,5 -3,2 -0,8 3,2 6,0 22 12 32 18 NO 1022,2 6 49 0,0
21.02.2018 09:00:00 -0,9 -3,9 -2,6 3,3 6,0 19 10 25 14 NNO 1021,8 5 25 0,0
21.02.2018 08:00:00 -1,9 -4,6 -5,9 3,3 6,1 14 8 21 12 NNO 1021,7 5 0 0,0
21.02.2018 07:00:00 -2,5 -4,8 -5,3 3,4 6,0 10 6 18 10 NO 1021,3 6 0 0,0
21.02.2018 06:00:00 -3,0 -5,5 -5,5 3,4 6,0 13 7 18 10 ONO 1021,1 6 0 0,0
21.02.2018 05:00:00 -0,6 -3,5 -1,8 3,4 6,0 14 8 20 11 NO 1021,0 7 0 0,0
21.02.2018 04:00:00 -1,3 -3,3 -3,1 3,5 6,1 10 6 16 9 NO 1020,9 5 0 0,0
21.02.2018 03:00:00 -2,3 -4,2 -4,2 3,6 6,1 11 6 16 9 NNO 1020,8 5 0 0,0
21.02.2018 02:00:00 -2,5 -4,5 -5,0 3,6 6,1 11 6 19 10 NO 1020,7 6 0 0,0
21.02.2018 01:00:00 -2,7 -4,4 -5,7 3,6 6,1 10 6 12 6 NNO 1020,3 7 0 0,0
21.02.2018 00:00:00 -2,4 -4,3 -5,7 3,7 6,1 5 3 9 5 N 1019,8 6 0 0,0
20.02.2018 23:00:00 -2,4 -4,1 -5,5 3,7 6,1 2 1 8 4 O 1019,7 6 0 0,0
20.02.2018 22:00:00 -1,3 -3,2 -2,8 3,7 6,1 6 3 8 5 OZO 1019,4 6 0 0,0
20.02.2018 21:00:00 -1,8 -3,8 -4,0 3,7 6,1 2 1 6 3 ONO 1019,3 6 0 0,0
20.02.2018 20:00:00 -1,3 -3,7 -4,3 3,7 6,1 4 2 6 3 OZO 1019,0 7 0 0,0
20.02.2018 19:00:00 -0,5 -4,6 -3,5 3,7 6,1 2 1 8 4 ONO 1018,6 11 0 0,0
20.02.2018 18:00:00 0,7 -4,0 -1,8 3,6 6,1 6 3 14 8 ZO 1017,9 14 0 0,0
20.02.2018 17:00:00 2,4 -3,9 2,0 3,6 6,1 11 6 19 10 NO 1017,6 19 4 0,0
20.02.2018 16:00:00 2,8 -4,2 3,8 3,5 6,1 6 4 26 14 NNO 1017,6 19 9 0,0
20.02.2018 15:00:00 2,6 -3,5 3,9 3,4 6,1 15 8 26 14 O 1017,2 18 6 0,0
20.02.2018 14:00:00 2,8 -3,6 3,7 3,4 6,1 14 7 27 15 NNO 1017,6 17 33 0,0
20.02.2018 13:00:00 2,3 -3,6 3,9 3,4 6,1 17 9 27 15 NO 1018,0 17 8 0,0
20.02.2018 12:00:00 1,6 -4,5 2,9 3,4 6,1 13 7 24 13 NO 1018,0 18 25 0,0
20.02.2018 11:00:00 0,9 -4,3 1,0 3,5 6,1 16 8 31 17 NO 1017,9 16 35 0,0
20.02.2018 10:00:00 0,2 -3,4 0,0 3,5 6,1 19 11 27 15 ONO 1017,9 10 0 0,0
20.02.2018 09:00:00 -0,7 -2,1 -1,9 3,5 6,1 10 6 14 7 ONO 1017,8 5 0 0,0
20.02.2018 08:00:00 -1,4 -2,7 -2,8 3,6 6,1 8 4 10 5 NNO 1018,0 5 0 0,0
20.02.2018 07:00:00 -2,4 -3,2 -5,7 3,6 6,1 11 6 13 7 NO 1017,5 5 0 0,0
20.02.2018 06:00:00 -3,4 -4,8 -5,6 3,6 6,1 9 5 10 5 NO 1017,6 6 0 0,0
20.02.2018 05:00:00 -1,1 -2,4 -3,7 3,6 6,1 2 1 8 4 NO 1017,3 5 0 0,0
20.02.2018 04:00:00 -1,2 -2,5 -2,5 3,7 6,1 7 4 10 5 ONO 1017,2 6 0 0,0
20.02.2018 03:00:00 -0,7 -2,1 -1,7 3,7 6,1 4 2 7 4 ONO 1017,2 6 0 0,0
20.02.2018 02:00:00 -0,9 -2,0 -1,6 3,7 6,1 3 2 11 6 O 1017,4 6 0 0,0
20.02.2018 01:00:00 -0,4 -1,8 -1,6 3,7 6,1 8 4 9 5 NNO 1017,8 6 0 0,0
20.02.2018 00:00:00 -0,1 -1,7 -1,0 3,7 6,1 5 3 11 6 O 1017,7 9 0 0,0
19.02.2018 23:00:00 0,5 -1,4 -0,5 3,7 6,1 5 3 5 3 NO 1017,9 7 0 0,0
19.02.2018 22:00:00 0,4 -1,4 -0,4 3,7 6,1 3 1 4 2 OZO 1018,3 9 0 0,0
19.02.2018 21:00:00 0,6 -1,6 -0,2 3,7 6,1 3 2 4 2 O 1018,7 12 0 0,0
19.02.2018 20:00:00 1,0 -1,9 0,1 3,6 6,1 2 1 5 3 O 1018,7 12 0 0,0

tt = temperatuur
td = dauwpunt
tt 5cm = temperatuur 5cm
tt -20cm = temperatuur -20cm
tt -100cm = temperatuur -100cm
ff = windsnelheid
fx = windstoten
dd = windrichting
ppp = luchtdruk
vv = zicht
sd = Zonneschijnduur
rr = neerslag

Weerstations in de omgeving